GW5048 Weather Reports


time (UTC)temp
F
wind
direction
speed
knots
gust
knots
rain 1hr
in
rain 24hr
in
rain mn
in
humidity
%
barometer
mb
20260510164158 70 217 1.7 5.2 0.00 0.00 0.00 51 956.9
20260510163653 69 75 0.0 1.7 0.00 0.00 0.00 56 956.9
20260510163149 71 218 1.7 1.7 0.00 0.00 0.00 54 956.9
20260510162643 69 322 2.6 3.5 0.00 0.00 0.00 55 957.1
20260510162140 70 209 3.5 6.1 0.00 0.00 0.00 53 956.9
20260510161636 72 250 2.6 3.5 0.00 0.00 0.00 53 956.9
20260510161133 72 229 0.9 3.5 0.00 0.00 0.00 52 957.0
20260510160630 71 194 0.9 3.5 0.00 0.00 0.00 52 956.9
20260510160130 70 354 1.7 7.8 0.00 0.00 0.00 55 957.1
20260510155626 70 210 2.6 7.8 0.00 0.00 0.00 55 957.1
20260510155122 71 232 2.6 6.1 0.00 0.00 0.00 53 956.9
20260510154618 70 264 0.9 1.7 0.00 0.00 0.00 54 956.9
20260510154113 71 358 1.7 2.6 0.00 0.00 0.00 53 956.9
20260510153609 71 233 3.5 6.1 0.00 0.00 0.00 52 957.1
20260510153106 70 207 2.6 2.6 0.00 0.00 0.00 56 957.0
20260510152603 69 228 1.7 3.5 0.00 0.00 0.00 57 956.9
20260510152059 69 218 3.5 5.2 0.00 0.00 0.00 57 956.9
20260510151556 69 236 7.0 8.7 0.00 0.00 0.00 56 956.9
20260510151054 69 208 0.9 5.2 0.00 0.00 0.00 56 957.0
20260510150553 70 290 0.9 6.1 0.00 0.00 0.00 56 957.2
20260510150049 69 160 0.0 1.7 0.00 0.00 0.00 58 957.1
20260510145546 68 257 1.7 1.7 0.00 0.00 0.00 58 957.1
20260510145043 68 199 1.7 3.5 0.00 0.00 0.00 59 957.1
20260510144539 67 240 0.0 6.1 0.00 0.00 0.00 58 956.9
20260510144036 67 238 0.9 1.7 0.00 0.00 0.00 59 957.1
20260510143531 67 177 1.7 5.2 0.00 0.00 0.00 61 956.8
20260510143028 67 245 0.9 2.6 0.00 0.00 0.00 62 957.0
20260510142524 67 186 1.7 3.5 0.00 0.00 0.00 60 957.0
20260510142021 66 196 0.9 2.6 0.00 0.00 0.00 65 956.8
20260510141518 66 243 0.0 1.7 0.00 0.00 0.00 62 956.8
20260510141016 66 262 0.0 2.6 0.00 0.00 0.00 64 956.7
20260510140512 64 212 0.0 2.6 0.00 0.00 0.00 65 956.9
20260510140011 64 263 0.9 1.7 0.00 0.00 0.00 66 956.9
20260510135507 64 212 1.7 3.5 0.00 0.00 0.00 68 957.1
20260510135004 64 216 0.0 3.5 0.00 0.00 0.00 68 956.9
20260510134501 63 214 0.0 3.5 0.00 0.00 0.00 70 956.9
20260510133958 63 243 0.9 2.6 0.00 0.00 0.00 71 957.0
20260510133453 62 221 0.9 2.6 0.00 0.00 0.00 70 956.9
20260510132949 62 254 2.6 2.6 0.00 0.00 0.00 72 957.0
20260510132447 62 212 1.7 2.6 0.00 0.00 0.00 73 956.9
20260510131943 61 206 1.7 2.6 0.00 0.00 0.00 74 956.9
20260510131441 61 211 1.7 1.7 0.00 0.00 0.00 75 956.8
20260510130938 60 242 1.7 1.7 0.00 0.00 0.00 77 957.2
20260510130435 60 235 0.9 1.7 0.00 0.00 0.00 79 956.9
20260510125932 59 220 0.0 2.6 0.00 0.00 0.00 78 957.1
20260510125427 58 219 0.9 0.9 0.00 0.00 0.00 82 957.0
20260510124925 57 253 0.0 2.6 0.00 0.00 0.00 84 957.0
20260510124421 56 219 0.0 0.0 0.00 0.00 0.00 89 957.0
20260510123918 55 177 0.0 0.0 0.00 0.00 0.00 95 956.9
20260510123413 54 192 0.0 0.0 0.00 0.00 0.00 99 956.9
20260510122910 53 153 0.0 0.0 0.00 0.00 0.00 99 957.0
20260510122359 52 103 0.0 0.0 0.00 0.00 0.00 99 957.0
20260510121855 51 103 0.0 0.0 0.00 0.00 0.00 99 957.0
20260510121354 49 103 0.0 0.0 0.00 0.00 0.00 99 956.8
20260510120850 49 103 0.0 0.0 0.00 0.00 0.00 99 956.8
20260510120348 48 103 0.0 0.0 0.00 0.00 0.00 99 956.7
20260510115843 47 103 0.0 0.0 0.00 0.00 0.00 99 956.4
20260510115340 47 103 0.0 0.0 0.00 0.00 0.00 99 956.6
20260510114836 47 103 0.0 0.0 0.00 0.00 0.00 99 956.6
20260510114334 46 103 0.0 0.0 0.00 0.00 0.00 99 956.5
20260510113833 46 103 0.0 0.0 0.00 0.00 0.00 99 956.4
20260510113330 46 103 0.0 0.0 0.00 0.00 0.00 99 956.4
20260510112827 45 103 0.0 0.0 0.00 0.00 0.00 99 956.5
20260510112324 45 103 0.0 0.0 0.00 0.00 0.00 99 956.7
20260510111820 45 103 0.0 0.0 0.00 0.00 0.00 99 956.2
20260510111317 45 103 0.0 0.0 0.00 0.00 0.00 99 956.2
20260510110816 44 103 0.0 0.0 0.00 0.00 0.00 99 956.4
20260510110314 44 103 0.0 0.0 0.00 0.00 0.00 99 956.2
20260510105809 44 103 0.0 0.0 0.00 0.00 0.00 99 956.2
20260510105306 44 103 0.0 0.0 0.00 0.00 0.00 99 956.0
20260510104801 44 103 0.0 0.0 0.00 0.00 0.00 99 955.9
20260510104259 44 103 0.0 0.0 0.00 0.00 0.00 99 955.7
20260510103754 44 103 0.0 0.0 0.00 0.00 0.00 99 955.6
20260510103252 44 103 0.0 0.0 0.00 0.00 0.00 99 955.8
20260510102752 44 103 0.0 0.0 0.00 0.00 0.00 99 955.5
20260510102248 43 103 0.0 0.0 0.00 0.00 0.00 99 955.4
20260510101745 43 103 0.0 0.0 0.00 0.00 0.00 99 955.3
20260510101244 43 103 0.0 0.0 0.00 0.00 0.00 99 955.4
20260510100739 44 103 0.0 0.0 0.00 0.00 0.00 99 955.2
20260510100238 44 103 0.0 0.0 0.00 0.00 0.00 99 955.4
20260510095732 44 103 0.0 0.0 0.00 0.00 0.00 99 955.2
20260510095228 44 103 0.0 0.0 0.00 0.00 0.00 99 955.2
20260510094727 44 103 0.0 0.0 0.00 0.00 0.00 99 955.0
20260510094222 44 103 0.0 0.0 0.00 0.00 0.00 99 955.2
20260510093718 44 103 0.0 0.0 0.00 0.00 0.00 99 955.0
20260510093216 44 103 0.0 0.0 0.00 0.00 0.00 99 955.1
20260510092712 44 103 0.0 0.0 0.00 0.00 0.00 99 955.1
20260510092208 44 103 0.0 0.0 0.00 0.00 0.00 99 955.1
20260510091704 44 103 0.0 0.0 0.00 0.00 0.00 99 954.9
20260510091200 44 103 0.0 0.0 0.00 0.00 0.00 99 954.9
20260510090657 44 103 0.0 0.0 0.00 0.00 0.00 99 954.8
20260510090154 44 103 0.0 0.0 0.00 0.00 0.00 99 954.7
20260510085649 45 103 0.0 0.0 0.00 0.00 0.00 99 954.8
20260510085144 45 103 0.0 0.0 0.00 0.00 0.00 99 954.7
20260510084641 45 103 0.0 0.0 0.00 0.00 0.00 99 954.8
20260510084137 45 103 0.0 0.0 0.00 0.00 0.00 99 954.6
20260510083634 45 103 0.0 0.0 0.00 0.00 0.00 99 954.7
20260510083131 44 103 0.0 0.0 0.00 0.00 0.00 99 954.4
20260510082627 44 103 0.0 0.0 0.00 0.00 0.00 99 954.6
20260510082123 44 103 0.0 0.0 0.00 0.00 0.00 99 954.4
20260510081624 44 103 0.0 0.0 0.00 0.00 0.00 99 954.5
20260510081120 44 103 0.0 0.0 0.00 0.00 0.00 99 954.4
20260510080619 45 103 0.0 0.0 0.00 0.00 0.00 99 954.6
20260510080116 45 103 0.0 0.0 0.00 0.00 0.00 99 954.7
20260510075613 45 103 0.0 0.0 0.00 0.00 0.00 99 954.6
20260510075110 44 103 0.0 0.0 0.00 0.00 0.00 99 954.6
20260510074607 44 103 0.0 0.0 0.00 0.00 0.00 99 954.7
20260510074103 44 103 0.0 0.0 0.00 0.00 0.00 99 954.5
20260510073559 44 103 0.0 0.0 0.00 0.00 0.00 99 954.7
20260510073056 44 103 0.0 0.0 0.00 0.00 0.00 99 954.5
20260510072553 44 103 0.0 0.0 0.00 0.00 0.00 99 954.6
20260510072048 44 103 0.0 0.0 0.00 0.00 0.00 99 954.6
20260510071545 44 103 0.0 0.0 0.00 0.00 0.00 99 954.5
20260510071043 45 103 0.0 0.0 0.00 0.00 0.00 99 954.5
20260510070539 45 103 0.0 0.0 0.00 0.00 0.00 99 954.3
20260510070037 45 103 0.0 0.0 0.00 0.00 0.00 99 954.4
20260510065533 45 103 0.0 0.0 0.00 0.00 0.00 99 954.4
20260510065029 45 103 0.0 0.0 0.00 0.00 0.00 99 954.4
20260510064526 44 103 0.0 0.0 0.00 0.00 0.00 99 954.2
20260510064022 45 103 0.0 0.0 0.00 0.00 0.00 99 954.3
20260510063519 45 103 0.0 0.0 0.00 0.00 0.00 99 954.1
20260510063016 44 103 0.0 0.0 0.00 0.00 0.00 99 954.2
20260510062512 44 103 0.0 0.0 0.00 0.00 0.00 99 954.2
20260510062007 44 103 0.0 0.0 0.00 0.00 0.00 99 954.2
20260510061505 44 104 0.0 0.0 0.00 0.00 0.00 99 954.4
20260510061001 44 104 0.0 0.0 0.00 0.00 0.00 99 954.2
20260510060458 45 103 0.0 0.0 0.00 0.00 0.00 98 954.1
20260510055954 45 103 0.0 0.0 0.00 0.00 0.00 99 954.3
20260510055449 45 103 0.0 0.0 0.00 0.00 0.00 98 954.5
20260510054948 44 103 0.0 0.0 0.00 0.00 0.00 98 954.4
20260510054443 44 103 0.0 0.0 0.00 0.00 0.00 98 954.3
20260510053938 44 103 0.0 0.0 0.00 0.00 0.00 98 954.1
20260510053434 44 103 0.0 0.0 0.00 0.00 0.00 98 954.3
20260510052930 44 103 0.0 0.0 0.00 0.00 0.00 98 954.3
20260510052426 45 103 0.0 0.0 0.00 0.00 0.00 98 954.3
20260510051922 45 103 0.0 0.0 0.00 0.00 0.00 97 954.1
20260510051419 45 103 0.0 0.0 0.00 0.00 0.00 97 954.4
20260510050915 45 103 0.0 0.0 0.00 0.00 0.00 97 954.5
20260510050412 45 103 0.0 0.0 0.00 0.00 0.00 97 954.5
20260510045909 45 103 0.0 0.0 0.00 0.00 0.00 97 954.3
20260510045406 45 103 0.0 0.0 0.00 0.00 0.00 97 954.2
20260510044903 46 103 0.0 0.0 0.00 0.00 0.00 97 954.3
20260510044400 46 103 0.0 0.0 0.00 0.00 0.00 96 954.2
20260510043856 46 103 0.0 0.0 0.00 0.00 0.00 96 954.4
20260510043352 46 103 0.0 0.0 0.00 0.00 0.00 96 954.3
20260510042851 46 103 0.0 0.0 0.00 0.00 0.00 96 954.5
20260510042346 46 103 0.0 0.0 0.00 0.00 0.00 96 954.5
20260510041843 46 103 0.0 0.0 0.00 0.00 0.00 96 954.4
20260510041340 47 103 0.0 0.0 0.00 0.00 0.00 96 954.0
20260510040838 47 103 0.0 0.0 0.00 0.00 0.00 96 954.3
20260510040334 47 103 0.0 0.0 0.00 0.00 0.00 95 954.3
20260510035829 46 103 0.0 0.0 0.00 0.00 0.00 95 954.2
20260510035326 47 103 0.0 0.0 0.00 0.00 0.00 94 954.3
20260510034821 47 103 0.0 0.0 0.00 0.00 0.00 94 954.3
20260510034319 47 103 0.0 0.0 0.00 0.00 0.00 94 954.3
20260510033815 47 103 0.0 0.0 0.00 0.00 0.00 94 954.3
20260510033313 47 122 0.0 0.0 0.00 0.00 0.00 94 954.2
20260510032809 47 122 0.0 0.0 0.00 0.00 0.00 93 954.1
20260510032306 47 122 0.0 0.0 0.00 0.00 0.00 94 954.0
20260510031801 47 122 0.0 0.0 0.00 0.00 0.00 93 954.0
20260510031258 47 122 0.0 0.0 0.00 0.00 0.00 92 953.8
20260510030757 47 122 0.0 0.0 0.00 0.00 0.00 92 954.2
20260510030254 48 122 0.0 0.0 0.00 0.00 0.00 91 954.1
20260510025751 48 122 0.0 0.0 0.00 0.00 0.00 91 954.1
20260510025249 48 122 0.0 0.0 0.00 0.00 0.00 91 954.3
20260510024745 48 122 0.0 0.0 0.00 0.00 0.00 90 954.1
20260510024242 48 122 0.0 0.0 0.00 0.00 0.00 89 954.1
20260510023738 49 122 0.0 0.0 0.00 0.00 0.00 89 954.2
20260510023235 49 122 0.0 0.0 0.00 0.00 0.00 88 954.1
20260510022731 49 122 0.0 0.0 0.00 0.00 0.00 88 954.1
20260510022231 49 122 0.0 0.0 0.00 0.00 0.00 87 953.9
20260510021726 50 122 0.0 0.0 0.00 0.00 0.00 86 953.8
20260510021224 50 123 0.0 0.0 0.00 0.00 0.00 86 953.7
20260510020719 50 123 0.0 0.0 0.00 0.00 0.00 85 953.6
20260510020219 50 123 0.0 0.0 0.00 0.00 0.00 84 953.6
20260510015715 51 123 0.0 0.0 0.00 0.00 0.00 83 953.5
20260510015212 51 123 0.0 0.0 0.00 0.00 0.00 83 953.4
20260510014707 52 123 0.0 0.0 0.00 0.00 0.00 82 953.3
20260510014206 51 123 0.0 0.0 0.00 0.00 0.00 81 953.1
20260510013706 52 123 0.0 0.0 0.00 0.00 0.00 82 953.0
20260510013202 52 123 0.0 0.0 0.00 0.00 0.00 79 953.0
20260510012701 53 123 0.0 0.0 0.00 0.00 0.00 78 952.9
20260510012157 53 123 0.0 0.0 0.00 0.00 0.00 79 952.7
20260510011652 53 123 0.0 0.9 0.00 0.00 0.00 78 952.7
20260510011148 53 123 0.0 0.0 0.00 0.00 0.00 78 952.7
20260510010644 54 133 0.9 1.7 0.00 0.00 0.00 77 952.8
20260510010142 54 193 0.0 0.0 0.00 0.00 0.00 76 952.7
20260510005637 55 193 0.0 0.0 0.00 0.00 0.00 73 952.7
20260510005135 55 193 0.0 0.0 0.00 0.00 0.00 71 952.5
20260510004633 56 193 0.0 0.0 0.00 0.00 0.00 70 952.7
20260510004131 56 256 0.0 0.0 0.00 0.00 0.00 70 952.6
20260510003627 57 257 0.0 0.0 0.00 0.00 0.00 69 952.6
20260510003123 57 254 0.0 0.0 0.00 0.00 0.00 68 952.3
20260510002623 57 258 0.0 0.0 0.00 0.00 0.00 67 952.2
20260510002120 58 252 0.0 0.0 0.00 0.00 0.00 66 952.3
20260510001617 58 252 0.0 0.0 0.00 0.00 0.00 66 952.1
20260510001116 59 244 0.0 0.0 0.00 0.00 0.00 63 952.1
20260510000616 59 308 0.0 1.7 0.00 0.00 0.00 62 952.2
20260510000113 59 320 1.7 1.7 0.00 0.00 0.00 63 952.1
20260509235610 60 265 0.0 0.0 0.00 0.00 0.00 61 952.0
20260509235107 61 258 0.0 0.0 0.00 0.00 0.00 58 952.1
20260509234603 61 258 0.9 2.6 0.00 0.00 0.00 57 951.7
20260509234101 61 304 0.0 0.0 0.00 0.00 0.00 56 952.0
20260509233558 62 318 0.0 0.9 0.00 0.00 0.00 55 952.0
20260509233055 62 265 0.0 0.0 0.00 0.00 0.00 55 951.7
20260509232551 63 236 0.0 1.7 0.00 0.00 0.00 55 951.6
20260509232048 63 230 0.0 0.9 0.00 0.00 0.00 55 951.7
20260509231545 63 197 0.0 0.0 0.00 0.00 0.00 54 951.4
20260509231043 63 265 0.0 0.9 0.00 0.00 0.00 54 951.4
20260509230539 64 238 1.7 3.5 0.00 0.00 0.00 52 951.6
20260509230037 64 263 0.0 1.7 0.00 0.00 0.00 51 951.5
20260509225531 65 211 0.0 0.9 0.00 0.00 0.00 51 951.5
20260509225027 64 244 0.0 1.7 0.00 0.00 0.00 51 951.7
20260509224523 64 164 0.0 1.7 0.00 0.00 0.00 51 951.6
20260509224020 66 206 1.7 3.5 0.00 0.00 0.00 51 951.7
20260509223517 66 267 0.0 0.9 0.00 0.00 0.00 48 951.9
20260509223015 65 334 0.9 2.6 0.00 0.00 0.00 49 951.6
20260509222511 65 352 1.7 2.6 0.00 0.00 0.00 50 951.7
20260509222006 65 333 0.0 1.7 0.00 0.00 0.00 52 951.7
20260509221502 64 354 0.0 1.7 0.00 0.00 0.00 53 952.0
20260509220958 65 279 1.7 2.6 0.00 0.00 0.00 49 951.9
20260509220455 64 289 0.9 2.6 0.00 0.00 0.00 51 951.9
20260509215950 64 1 0.0 2.6 0.00 0.00 0.00 51 951.7
20260509215446 65 274 0.0 1.7 0.00 0.00 0.00 53 951.7
20260509214944 65 222 0.9 5.2 0.00 0.00 0.00 48 951.9
20260509214441 65 344 0.9 2.6 0.00 0.00 0.00 51 951.9
20260509213938 64 268 0.0 1.7 0.00 0.00 0.00 48 951.9
20260509213433 65 269 1.7 3.5 0.00 0.00 0.00 46 951.7
20260509212931 66 315 0.0 2.6 0.00 0.00 0.00 48 951.6
20260509212429 67 0 0.9 1.7 0.00 0.00 0.00 44 951.6
20260509211924 67 351 1.7 2.6 0.00 0.00 0.00 46 951.5
20260509211420 66 205 0.9 1.7 0.00 0.00 0.00 50 951.7
20260509210917 65 254 1.7 5.2 0.00 0.00 0.00 48 951.5
20260509210414 66 334 1.7 2.6 0.00 0.00 0.00 48 951.5
20260509205910 67 263 0.9 1.7 0.00 0.00 0.00 45 951.5
20260509205409 66 276 0.0 0.9 0.00 0.00 0.00 45 951.2
20260509204906 67 316 1.7 1.7 0.00 0.00 0.00 47 951.3
20260509204402 67 290 0.9 1.7 0.00 0.00 0.00 45 951.3
20260509203859 66 222 0.0 3.5 0.00 0.00 0.00 46 951.1
20260509203355 65 241 1.7 2.6 0.00 0.00 0.00 46 951.2
20260509202852 65 204 0.9 2.6 0.00 0.00 0.00 47 951.1
20260509202348 64 235 0.9 0.9 0.00 0.00 0.00 48 951.0
20260509201843 64 237 0.9 2.6 0.00 0.00 0.00 45 951.2
20260509201339 64 254 1.7 2.6 0.00 0.00 0.00 49 950.9
20260509200836 65 221 0.9 5.2 0.00 0.00 0.00 50 950.9
20260509200331 65 200 0.9 2.6 0.00 0.00 0.00 50 951.1
20260509195828 66 268 0.9 1.7 0.00 0.00 0.00 48 951.1
20260509195328 67 247 0.0 1.7 0.00 0.00 0.00 48 951.1
20260509194827 67 209 0.0 1.7 0.00 0.00 0.00 48 951.0
20260509194324 65 215 3.5 3.5 0.00 0.00 0.00 53 950.9
20260509193821 64 354 1.7 1.7 0.00 0.00 0.00 52 951.0
20260509193321 65 324 0.9 2.6 0.00 0.00 0.00 52 950.9
20260509192817 65 337 0.9 3.5 0.00 0.00 0.00 50 951.0
20260509192313 66 244 0.0 0.0 0.00 0.00 0.00 47 951.3
20260509191808 65 276 2.6 6.1 0.00 0.00 0.00 48 951.0
20260509191305 65 196 1.7 2.6 0.00 0.00 0.00 49 951.0
20260509190800 65 244 0.9 1.7 0.00 0.00 0.00 50 951.1
20260509190258 66 298 2.6 3.5 0.00 0.00 0.00 47 951.0
20260509185755 66 158 1.7 5.2 0.00 0.00 0.00 48 951.1
20260509185251 65 223 0.9 2.6 0.00 0.00 0.00 51 951.0
20260509184749 66 235 0.9 3.5 0.00 0.00 0.00 49 950.9
20260509184246 67 188 1.7 2.6 0.00 0.00 0.00 53 950.9
20260509183742 66 272 0.9 2.6 0.00 0.00 0.00 50 951.0
20260509183238 67 222 0.9 6.1 0.00 0.00 0.00 50 951.2
20260509182733 68 205 2.6 3.5 0.00 0.00 0.00 51 950.9
20260509182231 68 339 1.7 2.6 0.00 0.00 0.00 49 951.0
20260509181728 67 26 1.7 7.0 0.00 0.00 0.00 49 951.0
20260509181226 65 324 0.9 2.6 0.00 0.00 0.00 55 950.9
20260509180723 65 280 0.9 3.5 0.00 0.00 0.00 54 951.2
20260509180219 66 192 3.5 5.2 0.00 0.00 0.00 58 950.9
20260509175715 66 215 0.9 1.7 0.00 0.00 0.00 55 951.1
20260509175212 66 249 3.5 3.5 0.00 0.00 0.00 53 951.1
20260509174708 67 226 1.7 3.5 0.00 0.00 0.00 52 951.1
20260509174203 65 329 1.7 3.5 0.00 0.00 0.00 54 950.9
20260509173659 65 247 3.5 5.2 0.00 0.00 0.00 53 951.0
20260509173155 66 247 5.2 6.1 0.00 0.00 0.00 54 951.2
20260509172651 67 235 2.6 2.6 0.00 0.00 0.00 52 951.3
20260509172148 65 291 0.9 2.6 0.00 0.00 0.00 51 951.2
20260509171643 65 232 0.0 1.7 0.00 0.00 0.00 52 951.4
20260509171140 64 331 0.9 2.6 0.00 0.00 0.00 55 951.4
20260509170637 65 174 0.9 5.2 0.00 0.00 0.00 53 951.4
20260509170133 65 293 0.0 6.1 0.00 0.00 0.00 58 951.4
20260509165631 65 218 0.9 1.7 0.00 0.00 0.00 57 951.5
20260509165127 64 110 0.9 2.6 0.00 0.00 0.00 57 951.5